User: anonymous   Login
Location: Biltmore Gardens
(41.6070°N, 83.4666°W)
Time: 00:28:44
(UTC+00:00)
Language:

AQUA - Orbit

View from above orbital plane
View from above orbital plane
View from above satellite
View from above satellite

Ground track
Ground track

The orbit data is extracted from the following two-line orbital elements,

1 27424U 02022A   20273.58952640 +.00000110 +00000-0 +34548-4 0  9998
2 27424 098.1974 212.7024 0002481 050.2405 064.5939 14.57116969979031
Epoch (UTC): 29 September 2020 14:08:55
Eccentricity: 0.0002481
inclination: 98.1974°
perigee height: 701 km
apogee height: 704 km
right ascension of ascending node: 212.7024°
argument of perigee: 50.2405°
revolutions per day: 14.57116969
mean anomaly at epoch: 64.5939°
orbit number at epoch: 97903

The dashed part of the orbit path shows where the satellite is in the earth's shadow,  

DLR